Regional Weather Roundup
Issued by NWS

Home | Current Version | Previous Version | Graphics & Text | Print | Product List | Glossary On
Versions: 1 2 3 4 5 6 7 8 9 10 11 12 13 14 15 16 17 18 19 20 21 22 23 24 25 26 27 28 29 30 31 32 33 34 35 36 37 38 39 40 41 42 43 44 45 46 47 48 49 50
000
ASUS45 KBOU 172107
RWRCO

WEATHER ROUNDUP FOR COLORADO
NATIONAL WEATHER SERVICE DENVER/BOULDER CO
200 PM MST TUE JAN 17 2017

NOTE: "FAIR" INDICATES FEW OR NO CLOUDS BELOW 12000 FEET WITH NO
SIGNIFICANT WEATHER AND/OR OBSTRUCTIONS TO VISIBILITY.

COZ001>005-013-030-031-172200-
...NORTHWEST COLORADO...

CITY           SKY/WX    TMP DP  RH WIND       PRES   REMARKS
CRAIG          CLOUDY    19  14  81 W5        30.21S WCI  12
HAYDEN         FAIR      19  12  73 W7        30.17S WCI  10
MEEKER         FAIR      30  20  66 CALM      30.17F
MOUNT WERNER   NOT AVBL
STEAMBOAT SPGS FAIR      28  16  61 CALM      30.15S
WALDEN           N/A    N/A N/A N/A CALM      30.15S VSB<1/4
$$

COZ006>008-011-172200-
...WEST CENTRAL VALLEYS...

CITY           SKY/WX    TMP DP  RH WIND       PRES   REMARKS
GRAND JUNCTION FAIR      42  26  53 CALM      30.16F
MONTROSE       CLOUDY    41  30  65 NE5       30.17F
EAGLE          MOSUNNY   34  23  64 CALM      30.16F
RIFLE          FAIR      37  23  56 W3        30.15F
DELTA          FAIR      45  31  58 CALM      30.17S
NUCLA          PTSUNNY   43  30  61 NW5       30.17F
$$

COZ017>023-064>068-172200-
...SOUTHWEST COLORADO...

CITY           SKY/WX    TMP DP  RH WIND       PRES   REMARKS
DURANGO        CLOUDY    40  32  73 NW5       30.11F
CORTEZ         PTSUNNY   44  33  65 SW8       30.12F
PAGOSA SPRINGS CLOUDY    38  29  71 S3        30.12F
TELLURIDE      FAIR      33  26  77 W7        30.14F WCI  27
WOLF CREEK PAS CLOUDY    21  21 100 CALM      30.18F
$$

COZ009-010-012-014-032>034-037-058>063-172200-
...CENTRAL COLORADO...

CITY           SKY/WX    TMP DP  RH WIND       PRES   REMARKS
ASPEN          FAIR      33  21  61 NW6       30.10F WCI  28
BUENA VISTA    FAIR      34  24  67 CALM      30.07F
COPPER MTN     FAIR      28   9  43 NW5       30.14F WCI  23
BERTHOUD PASS  NOT AVBL
COTTONWOOD PAS FAIR      37  27  65 E6        30.08F
GUNNISON       FAIR      28  24  85 SE5       30.14F WCI  23
KREMMLING      CLOUDY    34  23  64 CALM      30.17S
LEADVILLE      FAIR      36   5  27 NW8       30.07F
MONARCH PASS   CLOUDY    21  19  93 MISG      30.22F
SALIDA         FAIR      43  27  54 SW13      30.13F
SUNLIGHT       FAIR      27  23  86 SW9       30.17F FOG     WCI  17
WILKERSON PASS NOT AVBL
$$

COZ069>075-172200-
...SAN LUIS VALLEY/SANGRE DE CRISTO MOUNTAINS...

CITY           SKY/WX    TMP DP  RH WIND       PRES   REMARKS
ALAMOSA        CLOUDY    32  28  85 CALM      30.11F
LA VETA PASS   FAIR      30  25  80 NE24G35   30.08S HAZE    WCI  16
SAGUACHE       CLOUDY    34  30  86 S3        30.12F
$$

COZ035-036-038>040-172200-
...NORTHERN COLORADO FRONT RANGE...

CITY           SKY/WX    TMP DP  RH WIND       PRES   REMARKS
DENVER INTL AP FAIR      43  25  49 S3        29.98F
DMNS CITY PARK   N/A     48  24  38 NE3G13    29.98S
AURORA         MOSUNNY   45  25  45 CALM      29.98F
FRONT RANGE AP MOSUNNY   45  28  53 CALM      29.99F
ERIE MUNI ARPT FAIR      41  25  52 CALM      29.99S
BOULDER MUN AP FAIR      41  27  56 CALM      29.99S
CENTENNIAL     FAIR      44  27  51 E3        29.97F
BROOMFIELD     MOSUNNY   41  27  56 CALM      29.99F
FORT COLLINS   FAIR      45  27  49 S9        29.98F
LONGMONT       FAIR      45  26  47 CALM      30.01S
$$

COZ041-046-047-076>085-087-088-172200-
...PIKES PEAK/PALMER DIVIDE AND SOUTHERN FOOTHILLS...

CITY           SKY/WX    TMP DP  RH WIND       PRES   REMARKS
COLO. SPRINGS  FAIR      41  28  60 CALM      30.01F
A. F. ACADEMY  FAIR      44  26  48 S3        29.99F
SCHRIEVER AFB  NOT AVBL
ELLICOTT       FAIR     N/A N/A N/A W5        30.00F
FALCON         FAIR      42  30  62 S5        30.02S
FORT CARSON    SUNNY     39  32  75 S5        30.02F
LIMON          FAIR      42  33  70 S12       30.00F
MONUMENT HILL  FAIR      43   9  24 CALM      30.01S
TRINIDAD       FAIR      33  27  78 S6        30.02F WCI  28
$$

COZ042>045-048>051-090-091-172200-
...NORTHEAST COLORADO...

CITY           SKY/WX    TMP DP  RH WIND       PRES   REMARKS
GREELEY ARPT   FAIR      44  28  53 CALM      29.99F
AKRON          FAIR      39  29  67 SW9       29.99F
BURLINGTON     FAIR      42  32  67 SW14      30.03F
WRAY           FAIR      45  32  61 SW10      30.03F
STERLING       FAIR      41  30  65 S9        29.99F
HOLYOKE        FAIR      43  27  52 SW9       30.01F
FORT MORGAN    FAIR      41  26  54 SW5       30.00F
$$

COZ086-089-092>099-172200-
...SOUTHEAST COLORADO...

CITY           SKY/WX    TMP DP  RH WIND       PRES   REMARKS
PUEBLO         FAIR      40  35  83 SE5       30.02F
LA JUNTA       FAIR      34  28  79 CALM      30.05F
LAMAR          FAIR      38  31  76 CALM      30.05F
SPRINGFIELD      N/A     43  34  70 S13       30.03F
$$



USA.gov is the U.S. government's official web portal to all federal, state and local government web resources and services.